Regional Weather Roundup
Issued by NWS

Home | Current Version | Previous Version | Text Only | Print | Product List | Glossary Off
Versions: 1 2 3 4 5 6 7 8 9 10 11 12 13 14 15 16 17 18 19 20 21 22 23 24 25 26 27 28 29 30 31 32 33 34 35 36 37 38 39 40 41 42 43 44 45 46 47 48 49 50

000
ASUS43 KLOT 302300
RWRIL

ILLINOIS REGIONAL WEATHER ROUNDUP
NATIONAL WEATHER SERVICE CHICAGO/ROMEOVILLE IL
600 PM CDT THU JUL 30 2015

NOTE: "FAIR" INDICATES FEW OR NO CLOUDS BELOW 12,000 FEET WITH NO
SIGNIFICANT WEATHER AND/OR OBSTRUCTIONS TO VISIBILITY.

* THESE STATIONS ARE NOT UNDER NWS QUALITY CONTROL. THEY ALSO MAY NOT
  REPORT WEATHER SUCH AS PRECIPITATION OR FOG.

ILZ001-002-007-009-015-016-024-310000-
NORTHWEST ILLINOIS

CITY           SKY/WX    TMP DP  RH WIND       PRES   REMARKS
MOLINE         SUNNY     87  64  46 W12       30.05F HX  88
STERLING*      SUNNY     84  66  54 NW12      30.01F HX  86
$$

ILZ003-004-008-010-011-017-018-310000-
NORTH CENTRAL ILLINOIS

CITY           SKY/WX    TMP DP  RH WIND       PRES   REMARKS
ROCKFORD       SUNNY     85  60  42 W10       30.03F HX  85
$$

ILZ005-006-012>014-019>023-310000-
NORTHEAST ILLINOIS

CITY           SKY/WX    TMP DP  RH WIND       PRES   REMARKS
CHICAGO-OHARE  MOSUNNY   86  53  32 NW16G26   30.00F HX  84
CHICAGO-MIDWAY MOSUNNY   88  52  29 W17G23    30.00F HX  85
AURORA         SUNNY     84  62  47 W14       30.03F HX  85
WAUKEGAN       SUNNY     84  54  35 VRB7      29.99F HX  83
DUPAGE AIRPORT SUNNY     85  53  33 NW16      30.02F HX  83
WHEELING       MOSUNNY   86  51  29 W10G20    30.01F HX  84
NORTHERLY ISL    N/A     86  49  27 W12         N/A  HX  83
$$

LMZ740>746-310000-
SOUTHERN LAKE MICHIGAN

STATION/POSITION SKY/WX   TEMP    WIND        PRES    VSBY  WAVE
                          AIR SEA DIR/SP/G                  HT/PER
                          (F)     (DEG/KT/KT) (MB)    (MI)  (FT/S)
HARRISON CRIB              84     310/ 16/ 21   N/A
BURNHAM HARBOR             87     280/ 12/ 16   N/A
CALUMET HARBOR             87     250/  6/ 11   N/A
BURNS HARBOR               87      CALM  /  1 1016.9F
MICHIGAN CITY              80     230/  2/  3   N/A
MICHIGAN CITY 6N           78 76  200/  4/  4   N/A           1
ST. JOSEPH                 76 74  250/  6/  8   N/A           2/ 4
$$

ILZ025>027-034>036-040-047-049-050-058-095>099-310000-
WEST-CENTRAL ILLINOIS

CITY           SKY/WX    TMP DP  RH WIND       PRES   REMARKS
QUINCY         SUNNY     86  62  44 W10       30.11F HX  86
MACOMB*        SUNNY     85  65  52 W10       30.11F HX  86
$$

ILZ028>032-037-038-041>044-048-051>054-059>061-310000-
CENTRAL ILLINOIS

CITY           SKY/WX    TMP DP  RH WIND       PRES   REMARKS
DECATUR        SUNNY     88  60  38 W10       30.07F HX  87
PEORIA         SUNNY     88  63  43 W12       30.07F HX  89
SPRINGFIELD    SUNNY     87  65  47 W9        30.09F HX  89
TAYLORVILLE    NOT AVBL
$$

ILZ033-039-045-046-055>057-062-063-310000-
EAST-CENTRAL ILLINOIS

CITY           SKY/WX    TMP DP  RH WIND       PRES   REMARKS
CHAMPAIGN      SUNNY     84  63  49 W8        30.07F HX  85
MATTOON        SUNNY     87  59  38 NW9       30.07F HX  86
$$

ILZ079-100>102-310000-
SOUTHWEST ILLINOIS

CITY           SKY/WX    TMP DP  RH WIND       PRES   REMARKS
BELLEVILLE     MOSUNNY   86  64  47 VRB5      30.09F HX  87
CAHOKIA*       MOSUNNY   89  58  34 N12       30.09F HX  88
SPARTA*        MOSUNNY   86  62  43 NW3       30.11S HX  86
$$

ILZ064>066-069>071-074>076-080>082-084>086-088>090-092>094-310000-
SOUTH-CENTRAL ILLINOIS

CITY           SKY/WX    TMP DP  RH WIND       PRES   REMARKS
CARBONDALE     MOSUNNY   85  64  49 N5        30.09F HX  86
MARION         PTSUNNY   86  63  45 N9        30.10S HX  87
MT. VERNON     MOSUNNY   86  63  45 N3        30.09F HX  87
SALEM*         MOSUNNY   85  60  42 NW6       30.10F HX  85
$$

ILZ067-068-072-073-078-083-087-091-310000-
SOUTHEAST ILLINOIS

CITY           SKY/WX    TMP DP  RH WIND       PRES   REMARKS
LAWRENCEVILLE  MOSUNNY   84  63  49 NW10      30.07F HX  85
FLORA*         MOSUNNY   85  62  44 NW6       30.08F HX  85
HARRISBURG*    MOSUNNY   85  61  44 N5        30.09F HX  85
ROBINSON*      MOSUNNY   84  66  54 W7        30.07F HX  86
CARMI*         MOSUNNY   83  59  43 CALM      30.07S HX  83
$$

ABBREVIATIONS USED IN REMARKS
   TC - TEMPERATURE IN CELSIUS
  WCI - WIND CHILL INDEX
   HX - HEAT INDEX
  VSB - VISIBILITY
$$



USA.gov is the U.S. government's official web portal to all federal, state and local government web resources and services.